Regional Weather Roundup
Issued by NWS

Home | Current Version | Previous Version | Text Only | Print | Product List | Glossary On
Versions: 1 2 3 4 5 6 7 8 9 10 11 12 13 14 15 16 17 18 19 20 21 22 23 24 25 26 27 28 29 30 31 32 33 34 35 36 37 38 39 40 41 42 43 44 45 46 47 48 49 50
000
ASUS43 KLMK 311302
RWRKY
KENTUCKY REGIONAL WEATHER ROUNDUP
NATIONAL WEATHER SERVICE LOUISVILLE KY
900 AM EDT TUE MAR 31 2015

NOTE "FAIR" INDICATES FEW OR NO CLOUDS BELOW 12,000 FEET
WITH NO SIGNIFICANT WEATHER AND/OR OBSTRUCTIONS TO VISIBILITY.

KYZ001>023-026-027-061>063-070>075-311400-
WESTERN AND SOUTH CENTRAL KENTUCKY

CITY           SKY/WX    TMP DP  RH WIND       PRES   REMARKS
PADUCAH        SUNNY     54  38  54 SW9       29.96S
HENDERSON      SUNNY     48  37  66 SW14      29.92S
OWENSBORO      SUNNY     52  40  63 SW9       29.93S
HOPKINSVILLE   NOT AVBL
BOWLING GREEN  SUNNY     51  34  52 SW5       29.97S
GLASGOW        NOT AVBL
$$

KYZ024-025-028>034-038-045-046-053-311400-
NORTH CENTRAL KENTUCKY

CITY           SKY/WX    TMP DP  RH WIND       PRES   REMARKS
LOUISVILLE/SDF SUNNY     56  31  38 SW17G23   29.89F
LOUISVILLE/LOU SUNNY     55  32  41 SW10G17   29.89F
FORT KNOX      NOT AVBL
$$

KYZ035>037-039>044-047>052-055>060-089>105-311400-
NORTHEAST KENTUCKY

CITY           SKY/WX    TMP DP  RH WIND       PRES   REMARKS
LEXINGTON      SUNNY     51  30  44 SW14      29.90F
COVINGTON      MOSUNNY   52  32  46 SW14G23   29.82F
FRANKFORT      SUNNY     52  30  43 SW13      29.88F
$$

KYZ054-064>069-076>088-106>120-311400-
SOUTHEAST KENTUCKY

CITY           SKY/WX    TMP DP  RH WIND       PRES   REMARKS
JACKSON        SUNNY     48  28  46 SW8       29.93F
LONDON         SUNNY     45  30  55 MISG      29.98S
SOMERSET       NOT AVBL
MIDDLESBORO    SUNNY     36  33  87 CALM      30.03S
MONTICELLO     SUNNY     49  37  63 CALM      30.01F
$$



USA.gov is the U.S. government's official web portal to all federal, state and local government web resources and services.